Weather in Beryoza

Belarus     52°32′04″N   24°59′04″E
temp.,
°C
wind,
m/s
gust,
m/s
humid.,
%
clouds,
%
prec.,
mm/h
press.,
hPa
HPBL,
m
14 may, fri
fri1400:00+11ese498898 0.0 1003384
03:00+12sse4896100 0.1 1002394
06:00+12sse5998100 0.9 1002453
09:00+11sse5897100 2.2 1002368
12:00+16sse577586 0.1 10031141
15:00+18s576770 1.3 10031528
18:00+16s367972 1.9 1003499
21:00+13ssw338946 2.9 100331
15 may, sat
sat1500:00+11sw2393100 0.0 100430
03:00+10sw349690 0.0 100468
06:00+9wsw349710 0.0 100569
09:00+14w458755 0.0 1006469
12:00+15w5578100 0.1 1008830
15:00+15w557797 0.1 1008876
18:00+14w577875 0.1 1009579
21:00+11sw228711 0.1 100913
16 may, sun
sun1600:00+10wsw229282 0.0 101014
03:00+8ssw229279 0.0 101023
06:00+8s23925 0.0 101036
09:00+13se4678100 0.0 1010354
12:00+17sse686964 0.0 10091172
15:00+19se696427 0.5 10071526
18:00+18se5974100 1.9 1005447
21:00+14sw3690100 6.5 1005114
17 may, mon
mon1700:00+12wsw129798 2.3 100626
03:00+12sw249888 2.8 1006112
06:00+12w3598100 0.8 1006322
09:00+11wnw2596100 1.4 1008313
12:00+16wnw3470100 0.4 10081121
15:00+19w335330 0.6 10061800
18:00+18wsw446014 0.0 10061765
21:00+14wsw337265 0.0 100627
18 may, tue
tue1800:00+11wnw4108730 0.0 1007246
03:00+11wsw3887100 0.1 1007254
06:00+10ssw3695100 0.1 1007157
09:00+12wsw458696 0.1 1008415
12:00+16wsw3466100 0.0 10081187
15:00+17w4457100 0.1 10081594
18:00+15w4673100 0.1 1008462
21:00+12wnw3780100 0.1 1009168